logo liguriameteo

Diretta Meteo Pantelleria, Italialunedì 4 maggio ore 12:20

Mappa
Sereno 19 °C Sereno 24 Ore: T.min 15 T.max 19
Ponente Sud/Sud-Est Km/h 25.9 Punto di rugiada: 14 °C Umidità: 72% Visibilità: 10 Km
Il sole sorge alle: 06:13 Il sole tramonta alle: 20:04
4 Maggio 2026 12:20 tempo osservato: Sereno Sereno 19 72 1020 vento: Nord S/SE 25.9
4 Maggio 2026 11:20 tempo osservato: Sereno Sereno 19 68 1019 vento: Nord S/SE 25.9
4 Maggio 2026 10:50 tempo osservato: Sereno Sereno 19 72 1019 vento: Nord S/SE 25.9
4 Maggio 2026 10:20 tempo osservato: Sereno Sereno 18 77 1019 vento: Nord S 25.9
4 Maggio 2026 09:50 tempo osservato: Sereno Sereno 18 72 1019 vento: Nord S/SE 24
4 Maggio 2026 09:20 tempo osservato: Sereno Sereno 18 77 1019 vento: Nord S 24
4 Maggio 2026 08:50 tempo osservato: Sereno Sereno 17 82 1019 vento: Nord S 24
4 Maggio 2026 08:20 tempo osservato: Sereno Sereno 17 77 1019 vento: Nord S 22.2
4 Maggio 2026 07:50 tempo osservato: Sereno Sereno 16 82 1019 vento: Nord S 22.2
4 Maggio 2026 07:20 tempo osservato: Sereno Sereno 16 82 1019 vento: Nord S 16.7
4 Maggio 2026 06:50 tempo osservato: Sereno Sereno 15 82 1019 vento: Nord S 16.7
4 Maggio 2026 06:20 tempo osservato: Sereno Sereno 15 82 1018 vento: Nord S 18.5
4 Maggio 2026 05:50 tempo osservato: Sereno Sereno 15 82 1018 vento: Nord S 16.7
4 Maggio 2026 05:20 tempo osservato: Sereno Sereno 15 76 1018 vento: Nord S 16.7
4 Maggio 2026 04:50 tempo osservato: Sereno Sereno 15 76 1019 vento: Nord S 16.7
4 Maggio 2026 04:20 tempo osservato: Sereno Sereno 15 76 1018 vento: Nord S 18.5
4 Maggio 2026 03:50 tempo osservato: Nuvoloso Nuvoloso 15 76 1019 vento: Nord S 16.7
4 Maggio 2026 03:20 tempo osservato: Sereno Sereno 15 82 1019 vento: Nord S 16.7
4 Maggio 2026 02:50 tempo osservato: Poco Nuvoloso Poco Nuvoloso 15 76 1019 vento: Nord S 14.8
4 Maggio 2026 02:20 tempo osservato: Molto Nuvoloso Molto Nuvoloso 15 82 1019 vento: Nord S 14.8
4 Maggio 2026 01:50 tempo osservato: Sereno Sereno 15 82 1019 vento: Nord S 18.5
4 Maggio 2026 01:20 tempo osservato: Molto Nuvoloso Molto Nuvoloso 15 82 1019 vento: Nord S 16.7
4 Maggio 2026 00:50 tempo osservato: Molto Nuvoloso Molto Nuvoloso 15 82 1019 vento: Nord S 16.7
4 Maggio 2026 00:20 tempo osservato: Molto Nuvoloso Molto Nuvoloso 15 82 1019 vento: Nord S 16.7
3 Maggio 2026 23:50 tempo osservato: Molto Nuvoloso Molto Nuvoloso 15 82 1019 vento: Nord S 18.5
3 Maggio 2026 23:20 tempo osservato: Molto Nuvoloso Molto Nuvoloso 15 87 1019 vento: Nord S 18.5
3 Maggio 2026 22:50 tempo osservato: Sereno Sereno 15 82 1020 vento: Nord S 18.5
3 Maggio 2026 22:20 tempo osservato: Sereno Sereno 15 87 1020 vento: Nord S 20.3
3 Maggio 2026 21:50 tempo osservato: Sereno Sereno 15 87 1020 vento: Nord S 16.7
3 Maggio 2026 21:20 tempo osservato: Sereno Sereno 15 87 1019 vento: Nord S 18.5
3 Maggio 2026 20:50 tempo osservato: Sereno Sereno 15 87 1019 vento: Nord S 18.5
3 Maggio 2026 20:20 tempo osservato: Sereno Sereno 16 82 1019 vento: Nord S 18.5
3 Maggio 2026 19:50 tempo osservato: Sereno Sereno 16 82 1019 vento: Nord S 16.7
3 Maggio 2026 19:20 tempo osservato: Sereno Sereno 16 82 1019 vento: Nord S 20.3
3 Maggio 2026 18:50 tempo osservato: Sereno Sereno 17 77 1019 vento: Nord S 22.2
3 Maggio 2026 18:20 tempo osservato: Sereno Sereno 17 77 1019 vento: Nord S 22.2
3 Maggio 2026 17:50 tempo osservato: Sereno Sereno 17 77 1019 vento: Nord S 20.3
3 Maggio 2026 17:20 tempo osservato: Sereno Sereno 18 72 1019 vento: Nord S 20.3
3 Maggio 2026 16:50 tempo osservato: Sereno Sereno 18 63 1019 vento: Nord S 22.2
3 Maggio 2026 16:20 tempo osservato: Sereno Sereno 18 59 1020 vento: Nord S 20.3
3 Maggio 2026 15:50 tempo osservato: Sereno Sereno 18 59 1020 vento: Nord S 22.2
3 Maggio 2026 15:20 tempo osservato: Sereno Sereno 18 63 1020 vento: Nord S 18.5
3 Maggio 2026 14:50 tempo osservato: Sereno Sereno 19 59 1021 vento: Nord S 18.5
3 Maggio 2026 14:20 tempo osservato: Sereno Sereno 18 63 1021 vento: Nord S/SO 25.9
3 Maggio 2026 13:50 tempo osservato: Sereno Sereno 19 68 1021 vento: Nord S 22.2
3 Maggio 2026 13:20 tempo osservato: Sereno Sereno 18 67 1021 vento: Nord S 20.3
3 Maggio 2026 12:50 tempo osservato: Sereno Sereno 18 67 1021 vento: Nord S/SO 20.3